Regional Weather Roundup
Issued by NWS

Home | Current Version | Previous Version | Graphics & Text | Print | Product List | Glossary On
Versions: 1 2 3 4 5 6 7 8 9 10 11 12 13 14 15 16 17 18 19 20 21 22 23 24 25 26 27 28 29 30 31 32 33 34 35 36 37 38 39 40 41 42 43 44 45 46 47 48 49 50
000
ASUS43 KIND 281900
RWRIN

WEATHER ROUNDUP FOR INDIANA
NATIONAL WEATHER SERVICE INDIANAPOLIS IN
300 PM EDT SUN MAY 28 2017

NOTE: "FAIR" INDICATES FEW OR NO CLOUDS BELOW 12,000 FEET WITH NO
SIGNIFICANT WEATHER AND/OR OBSTRUCTIONS TO VISIBILITY.

* - STATION DOES NOT REPORT WEATHER SUCH AS PRECIPITATION OR FOG.

+ - STATION NOT QUALITY CONTROLLED BY THE NATIONAL WEATHER SERVICE.
    USE DATA WITH CAUTION...ESPECIALLY DEWPOINT AND RELATIVE
    HUMIDITY OBSERVATIONS.

INZ001>003-010>013-019-020-282000-
NORTHWEST INDIANA

CITY           SKY/WX    TMP DP  RH WIND       PRES   REMARKS
GARY /AIRPORT/ PTSUNNY   66  57  72 NE7       29.74F
MICHIGAN CITY+ PTSUNNY   68  61  77 N6        29.74S
MONTICELLO +   PTSUNNY   74  66  77 W9        29.71F
RENSSELAER +   MOSUNNY   79  52  38 W13G20    29.71F

$$

LMZ046-743>745-282000-
SOUTHERN LAKE MICHIGAN

STATION/POSITION TIME  TEMP    WIND        PRES    WAVE
                       AIR SEA DIR/SP/G            HT
                 (UTC) (F)     (DEG/KT/KT) (MB)    (FT)
BURNS HARBOR     1840   59      70/  9/ 10 1007.5F
MICHIGAN CITY    1830   56      40/  7/  8   N/A
5NW MICH CITY    1850   56 56   80/  6/  8   N/A     1

$$

INZ004-005-014>016-021>024-282000-
NORTH CENTRAL INDIANA

CITY           SKY/WX    TMP DP  RH WIND       PRES   REMARKS
GOSHEN         TSTM      72  66  81 SW5       29.69F
SOUTH BEND     MOSUNNY   75  64  68 N14       29.71F

$$

INZ006>009-017-018-025>027-282000-
NORTHEAST INDIANA

CITY           SKY/WX    TMP DP  RH WIND       PRES   REMARKS
ANGOLA *+      CLOUDY    73  70  88 NW5       29.68F
FORT WAYNE     CLOUDY    72  65  78 SW14      29.71F
KENDALLVILLE + PTSUNNY   76  65  70 SW10      29.69F

$$

INZ028-029-035-036-043>045-051>053-282000-
WEST CENTRAL INDIANA

CITY           SKY/WX    TMP DP  RH WIND       PRES   REMARKS
CRAWFORDSVL +  CLOUDY   -16 -22  75 SW15      29.75F WCI -40
LAFAYETTE      PTSUNNY   73  66  78 W10       29.71F
TERRE HAUTE    CLOUDY    76  62  62 W14       29.77F

$$

INZ030>032-037>040-046>048-054>057-064-065-282000-
CENTRAL INDIANA

CITY           SKY/WX    TMP DP  RH WIND       PRES   REMARKS
CP ATTERBURY + CLOUDY    72  61  68 W7        29.78F
COLUMBUS       CLOUDY    73  57  56 W12       29.78F
INDIANAPOLIS   CLOUDY    75  61  61 W16       29.75F
-EAGLE CREEK   CLOUDY    74  61  63 SW8       29.74F
KOKOMO +       CLOUDY    76  66  71 W14       29.73S
SHELBYVILLE    CLOUDY    74  61  63 SW13      29.76F

$$

INZ033-034-041-042-049-050-058-059-282000-
EAST CENTRAL INDIANA

CITY           SKY/WX    TMP DP  RH WIND       PRES   REMARKS
MUNCIE         PTSUNNY   77  61  57 W15       29.74F
RICHMOND +     CLOUDY    72  63  73 SW15G23   29.79S

$$

INZ060-061-067>069-081>083-085>088-282000-
SOUTHWEST INDIANA

CITY           SKY/WX    TMP DP  RH WIND       PRES   REMARKS
EVANSVILLE     PTSUNNY   77  63  61 W16       29.82F
HUNTINGBURG *+ PTSUNNY   71  63  75 SW10      29.82F

$$

INZ062-063-066-070>080-084-089>092-282000-
SOUTH CENTRAL AND SOUTHEAST INDIANA

CITY           SKY/WX    TMP DP  RH WIND       PRES   REMARKS
BLOOMINGTON    PTSUNNY   74  61  63 W8        29.78F
MADISON *+     CLOUDY    73  61  64 SW12      29.82F
SEYMOUR +      CLOUDY    73  61  64 W16       29.79S

$$





USA.gov is the U.S. government's official web portal to all federal, state and local government web resources and services.